CCD9577 ZHHH-LFPG

Flight info

Callsign CCD9577
Flight time N/A
Altitude 26600
Route BENBI1S BENBI W56 IGMIG/K0883S0780 W128 KAMDA W129 CGO B208 ANPIG/K0898S0840 B208 NIXAL Y746 DARNO/K0896F280 P982 MEMUR/K0909F300 P982 BADIK N181 BAPUN N869 IBREN/K0898F320 N869 DURTI L29 LAFAT/N0485F320 DCT SUWGI T727 DENKO N858 SUBIX Z20 MAG Z92 ABGUS DCT ASBON DCT DINAN
Aircraft B77L/H-SDE1E2E3FGHIJ2J3J4J5M1RWXY/LB1D1

Departure

Time N/A
Airport Wuhan Tianhe International Airport (ZHHH)

Arrival

Time 2026-05-08 14:56
Airport Charles de Gaulle International Airport (LFPG)
Time Latitude Longitude Altitude Speed Heading
2026-05-08 10:33 58.90766 49.38470 26427 ft 412 kts 260°
2026-05-08 10:33 58.90292 49.32989 26435 ft 411 kts 260°
2026-05-08 10:33 58.89818 49.27554 26439 ft 412 kts 260°
2026-05-08 10:33 58.89340 49.22075 26445 ft 412 kts 260°
2026-05-08 10:34 58.88858 49.16596 26439 ft 412 kts 260°
2026-05-08 10:34 58.88375 49.11142 26441 ft 413 kts 260°
2026-05-08 10:34 58.87877 49.05669 26446 ft 413 kts 259°
2026-05-08 10:34 58.87361 49.00216 26445 ft 413 kts 259°
2026-05-08 10:35 58.86838 48.94754 26447 ft 413 kts 259°
2026-05-08 10:35 58.86314 48.89305 26455 ft 413 kts 259°
2026-05-08 10:35 58.85788 48.83843 26450 ft 413 kts 259°
2026-05-08 10:35 58.85262 48.78389 26449 ft 414 kts 259°
2026-05-08 10:36 58.84741 48.73004 26451 ft 413 kts 259°
2026-05-08 10:36 58.84205 48.67468 26453 ft 413 kts 259°
2026-05-08 10:36 58.83680 48.62079 26452 ft 413 kts 259°
2026-05-08 10:36 58.83149 48.56654 26499 ft 412 kts 259°
2026-05-08 10:37 58.82616 48.51226 26453 ft 408 kts 259°
2026-05-08 10:37 58.82085 48.45856 26451 ft 406 kts 259°
2026-05-08 10:37 58.81564 48.40499 26458 ft 406 kts 259°
2026-05-08 10:37 58.81055 48.35131 26459 ft 407 kts 259°
2026-05-08 10:38 58.80551 48.29762 26460 ft 407 kts 259°
2026-05-08 10:38 58.80046 48.24378 26462 ft 407 kts 259°
2026-05-08 10:38 58.79543 48.19059 26460 ft 408 kts 259°
2026-05-08 10:38 58.79032 48.13684 26462 ft 408 kts 259°
2026-05-08 10:39 58.78517 48.08295 26462 ft 408 kts 259°
2026-05-08 10:39 58.77997 48.02905 26462 ft 408 kts 259°
2026-05-08 10:39 58.77476 47.97526 26469 ft 408 kts 259°
2026-05-08 10:39 58.76952 47.92143 26464 ft 408 kts 259°
2026-05-08 10:40 58.76429 47.86795 26469 ft 408 kts 259°
2026-05-08 10:40 58.75900 47.81409 26470 ft 407 kts 259°
2026-05-08 10:40 58.75371 47.76048 26466 ft 407 kts 259°
2026-05-08 10:40 58.74838 47.70679 26473 ft 407 kts 259°
2026-05-08 10:41 58.74306 47.65332 26475 ft 407 kts 258°
2026-05-08 10:41 58.73779 47.60065 26476 ft 406 kts 258°
2026-05-08 10:41 58.73242 47.54723 26476 ft 406 kts 258°
2026-05-08 10:41 58.72703 47.49379 26473 ft 406 kts 258°
2026-05-08 10:42 58.72162 47.44038 26476 ft 406 kts 258°
2026-05-08 10:42 58.71620 47.38712 26476 ft 406 kts 258°
2026-05-08 10:42 58.71073 47.33372 26484 ft 406 kts 258°
2026-05-08 10:42 58.70526 47.28040 26481 ft 406 kts 258°
2026-05-08 10:43 58.69977 47.22720 26480 ft 406 kts 258°
2026-05-08 10:43 58.69427 47.17406 26485 ft 406 kts 258°
2026-05-08 10:43 58.68873 47.12078 26487 ft 406 kts 258°
2026-05-08 10:43 58.68317 47.06757 26483 ft 406 kts 258°
2026-05-08 10:44 58.67760 47.01442 26487 ft 406 kts 258°
2026-05-08 10:44 58.67200 46.96132 26490 ft 405 kts 258°
2026-05-08 10:44 58.66637 46.90812 26487 ft 405 kts 258°
2026-05-08 10:44 58.66074 46.85514 26486 ft 405 kts 258°
2026-05-08 10:45 58.65509 46.80216 26494 ft 405 kts 258°
2026-05-08 10:45 58.64940 46.74913 26492 ft 405 kts 258°
2026-05-08 10:45 58.64378 46.69681 26489 ft 405 kts 258°
2026-05-08 10:45 58.63805 46.64378 26493 ft 405 kts 258°
2026-05-08 10:46 58.63230 46.59078 26496 ft 405 kts 258°
2026-05-08 10:46 58.62654 46.53792 26497 ft 405 kts 258°
2026-05-08 10:46 58.62075 46.48498 26497 ft 405 kts 258°
2026-05-08 10:46 58.61493 46.43198 26499 ft 404 kts 258°
2026-05-08 10:47 58.60911 46.37920 26496 ft 404 kts 258°
2026-05-08 10:47 58.60327 46.32643 26498 ft 404 kts 258°
2026-05-08 10:47 58.59741 46.27367 26498 ft 404 kts 258°
2026-05-08 10:47 58.59153 46.22096 26499 ft 404 kts 258°
2026-05-08 10:48 58.58570 46.16892 26508 ft 404 kts 258°
2026-05-08 10:48 58.57978 46.11631 26506 ft 404 kts 258°
2026-05-08 10:48 58.57384 46.06374 26504 ft 404 kts 258°
2026-05-08 10:48 58.56788 46.01111 26504 ft 404 kts 258°
2026-05-08 10:49 58.56190 45.95851 26508 ft 404 kts 258°
2026-05-08 10:49 58.55589 45.90591 26506 ft 404 kts 258°
2026-05-08 10:49 58.54989 45.85343 26511 ft 404 kts 257°
2026-05-08 10:49 58.54386 45.80104 26511 ft 403 kts 257°
2026-05-08 10:50 58.53777 45.74863 26511 ft 403 kts 257°
2026-05-08 10:50 58.53117 45.69642 26513 ft 403 kts 256°
2026-05-08 10:50 58.52419 45.64442 26511 ft 403 kts 256°
2026-05-08 10:50 58.51711 45.59259 26516 ft 403 kts 256°
2026-05-08 10:51 58.51009 45.54131 26516 ft 403 kts 256°
2026-05-08 10:51 58.50299 45.48949 26520 ft 402 kts 256°
2026-05-08 10:51 58.49592 45.43776 26521 ft 402 kts 256°
2026-05-08 10:51 58.48885 45.38602 26518 ft 402 kts 256°
2026-05-08 10:52 58.48180 45.33438 26518 ft 402 kts 256°
2026-05-08 10:52 58.47472 45.28263 26524 ft 402 kts 256°
2026-05-08 10:52 58.46765 45.23103 26518 ft 402 kts 256°
2026-05-08 10:52 58.46056 45.17957 26523 ft 402 kts 256°
2026-05-08 10:53 58.45343 45.12786 26526 ft 402 kts 256°
2026-05-08 10:53 58.44629 45.07634 26529 ft 402 kts 256°
2026-05-08 10:53 58.43911 45.02471 26529 ft 402 kts 255°
2026-05-08 10:53 58.43192 44.97314 26531 ft 402 kts 255°
2026-05-08 10:54 58.42472 44.92163 26530 ft 402 kts 255°
2026-05-08 10:54 58.41750 44.87020 26528 ft 402 kts 255°
2026-05-08 10:54 58.41023 44.81855 26529 ft 402 kts 255°
2026-05-08 10:54 58.40297 44.76708 26536 ft 402 kts 255°
2026-05-08 10:55 58.39566 44.71554 26534 ft 402 kts 255°
2026-05-08 10:55 58.38838 44.66430 26537 ft 402 kts 255°
2026-05-08 10:55 58.38105 44.61294 26537 ft 401 kts 255°
2026-05-08 10:55 58.37373 44.56179 26539 ft 401 kts 255°
2026-05-08 10:56 58.36633 44.51021 26538 ft 401 kts 255°
2026-05-08 10:56 58.35906 44.45973 26542 ft 401 kts 255°
2026-05-08 10:56 58.35165 44.40847 26543 ft 401 kts 255°
2026-05-08 10:56 58.34423 44.35732 26545 ft 401 kts 255°
2026-05-08 10:57 58.33680 44.30617 26549 ft 401 kts 255°
2026-05-08 10:57 58.32932 44.25487 26545 ft 401 kts 255°
2026-05-08 10:57 58.31437 44.15284 26550 ft 401 kts 255°
2026-05-08 10:58 58.30685 44.10172 26553 ft 401 kts 255°
2026-05-08 10:58 58.29933 44.05080 26552 ft 401 kts 255°
2026-05-08 10:58 58.29176 43.99978 26555 ft 401 kts 255°
2026-05-08 10:58 58.28419 43.94884 26559 ft 401 kts 255°
2026-05-08 10:59 58.27662 43.89800 26561 ft 400 kts 255°
2026-05-08 10:59 58.26907 43.84749 26561 ft 400 kts 255°
2026-05-08 10:59 58.26143 43.79657 26563 ft 400 kts 255°
2026-05-08 10:59 58.25378 43.74574 26554 ft 400 kts 254°
2026-05-08 11:00 58.24612 43.69495 26568 ft 400 kts 254°
2026-05-08 11:00 58.23842 43.64406 26570 ft 400 kts 254°
2026-05-08 11:00 58.23073 43.59341 26567 ft 400 kts 254°
2026-05-08 11:00 58.22298 43.54258 26573 ft 400 kts 254°
2026-05-08 11:01 58.21522 43.49178 26572 ft 400 kts 254°
2026-05-08 11:01 58.20743 43.44095 26576 ft 400 kts 254°
2026-05-08 11:01 58.19965 43.39026 26578 ft 400 kts 254°
2026-05-08 11:01 58.19194 43.34026 26575 ft 400 kts 254°
2026-05-08 11:02 58.18411 43.28968 26573 ft 400 kts 254°
2026-05-08 11:02 58.16840 43.18849 26586 ft 400 kts 254°
2026-05-08 11:02 58.16049 43.13784 26572 ft 400 kts 254°
2026-05-08 11:03 58.15259 43.08732 26584 ft 400 kts 254°
2026-05-08 11:03 58.14466 43.03675 26588 ft 399 kts 254°
2026-05-08 11:03 58.13674 42.98642 26587 ft 399 kts 254°
2026-05-08 11:03 58.12880 42.93614 26594 ft 399 kts 254°
2026-05-08 11:04 58.12082 42.88576 26595 ft 399 kts 254°
2026-05-08 11:04 58.11285 42.83555 26588 ft 399 kts 254°
2026-05-08 11:04 58.10484 42.78520 26593 ft 399 kts 254°
2026-05-08 11:04 58.09682 42.73502 26599 ft 400 kts 254°
2026-05-08 11:05 58.08875 42.68467 26593 ft 400 kts 253°
2026-05-08 11:05 58.08079 42.63507 26600 ft 400 kts 253°
2026-05-08 11:05 58.07269 42.58478 26593 ft 400 kts 253°
2026-05-08 11:05 58.06445 42.53384 26597 ft 400 kts 253°
2026-05-08 11:06 58.05642 42.48424 26605 ft 400 kts 253°
2026-05-08 11:06 58.04825 42.43399 26607 ft 400 kts 253°
2026-05-08 11:06 58.04007 42.38378 26606 ft 400 kts 253°
2026-05-08 11:06 58.03451 42.34977 26608 ft 400 kts 253°
2026-05-08 11:07 58.02361 42.28325 26609 ft 400 kts 253°
2026-05-08 11:07 58.01537 42.23312 26609 ft 400 kts 253°
2026-05-08 11:07 58.00710 42.18296 26614 ft 400 kts 253°
2026-05-08 11:07 58.00162 42.14978 26611 ft 401 kts 253°
2026-05-08 11:08 57.99331 42.09958 26616 ft 401 kts 253°
2026-05-08 11:08 57.98500 42.04953 26615 ft 401 kts 253°
2026-05-08 11:08 57.97664 41.99936 26621 ft 401 kts 253°
2026-05-08 11:08 57.96825 41.94914 26618 ft 401 kts 253°
2026-05-08 11:09 57.95990 41.89929 26623 ft 400 kts 253°
2026-05-08 11:09 57.95150 41.84924 26634 ft 400 kts 253°
2026-05-08 11:09 57.94311 41.79940 26632 ft 400 kts 253°
2026-05-08 11:09 57.93469 41.74952 26626 ft 400 kts 253°
2026-05-08 11:10 57.92623 41.69959 26635 ft 400 kts 253°
2026-05-08 11:10 57.91776 41.64961 26631 ft 400 kts 253°
2026-05-08 11:10 57.90929 41.59987 26631 ft 400 kts 253°
2026-05-08 11:10 57.90082 41.55027 26640 ft 400 kts 253°
2026-05-08 11:11 57.89231 41.50037 26636 ft 400 kts 253°
2026-05-08 11:11 57.88388 41.45088 26633 ft 400 kts 253°
2026-05-08 11:11 57.87529 41.40057 26646 ft 400 kts 253°
2026-05-08 11:11 57.86686 41.35132 26636 ft 400 kts 253°
2026-05-08 11:12 57.85836 41.30175 26647 ft 400 kts 253°
2026-05-08 11:12 57.84981 41.25203 26650 ft 400 kts 253°
2026-05-08 11:12 57.84126 41.20248 26648 ft 400 kts 253°
2026-05-08 11:12 57.83265 41.15267 26643 ft 400 kts 253°
2026-05-08 11:13 57.82407 41.10319 26652 ft 400 kts 253°
2026-05-08 11:13 57.81544 41.05362 26657 ft 400 kts 253°
2026-05-08 11:13 57.80679 41.00401 26655 ft 400 kts 253°
2026-05-08 11:13 57.79814 40.95453 26659 ft 400 kts 253°
2026-05-08 11:14 57.78946 40.90505 26656 ft 400 kts 253°
2026-05-08 11:14 57.78077 40.85566 26655 ft 400 kts 253°
2026-05-08 11:14 57.77205 40.80620 26660 ft 399 kts 253°
2026-05-08 11:14 57.76332 40.75681 26663 ft 399 kts 253°
2026-05-08 11:15 57.75457 40.70744 26667 ft 399 kts 253°
2026-05-08 11:15 57.74581 40.65814 26670 ft 399 kts 253°
2026-05-08 11:15 57.73704 40.60895 26672 ft 399 kts 253°
2026-05-08 11:15 57.72823 40.55963 26684 ft 399 kts 253°
2026-05-08 11:16 57.71943 40.51049 26687 ft 399 kts 253°
2026-05-08 11:16 57.71058 40.46122 26687 ft 399 kts 253°
2026-05-08 11:16 57.70170 40.41189 26690 ft 399 kts 253°
2026-05-08 11:16 57.69284 40.36284 26693 ft 399 kts 253°
2026-05-08 11:17 57.68392 40.31361 26699 ft 399 kts 253°
2026-05-08 11:17 57.67500 40.26442 26698 ft 399 kts 253°
2026-05-08 11:17 57.66607 40.21538 26700 ft 400 kts 252°
2026-05-08 11:17 57.65709 40.16614 26703 ft 400 kts 252°
2026-05-08 11:18 57.64824 40.11767 26701 ft 400 kts 252°
2026-05-08 11:18 57.63925 40.06858 26704 ft 400 kts 252°
2026-05-08 11:18 57.63022 40.01949 26703 ft 400 kts 252°
2026-05-08 11:18 57.62117 39.97040 26701 ft 400 kts 252°
2026-05-08 11:19 57.61212 39.92134 26702 ft 400 kts 252°
2026-05-08 11:19 57.60306 39.87230 26701 ft 400 kts 252°
2026-05-08 11:19 57.59400 39.82337 26698 ft 400 kts 252°
2026-05-08 11:19 57.58490 39.77432 26698 ft 400 kts 252°
2026-05-08 11:20 57.57577 39.72524 26691 ft 400 kts 252°
2026-05-08 11:20 57.56664 39.67630 26695 ft 400 kts 252°
2026-05-08 11:20 57.55749 39.62731 26699 ft 400 kts 252°
2026-05-08 11:20 57.54832 39.57841 26697 ft 401 kts 252°
2026-05-08 11:21 57.53911 39.52941 26694 ft 401 kts 252°
2026-05-08 11:21 57.52988 39.48040 26698 ft 401 kts 252°
2026-05-08 11:21 57.52063 39.43138 26698 ft 401 kts 252°
2026-05-08 11:21 57.51147 39.38297 26705 ft 401 kts 252°
2026-05-08 11:22 57.50218 39.33399 26704 ft 401 kts 252°
2026-05-08 11:22 57.49286 39.28497 26704 ft 402 kts 252°
2026-05-08 11:22 57.48353 39.23609 26700 ft 402 kts 252°
2026-05-08 11:22 57.47413 39.18709 26703 ft 402 kts 252°
2026-05-08 11:23 57.46473 39.13825 26706 ft 402 kts 252°
2026-05-08 11:23 57.45526 39.08918 26708 ft 403 kts 252°
2026-05-08 11:23 57.44580 39.04027 26704 ft 403 kts 252°
2026-05-08 11:23 57.43632 38.99129 26707 ft 403 kts 252°
2026-05-08 11:24 57.42682 38.94239 26706 ft 403 kts 252°
2026-05-08 11:24 57.41732 38.89352 26707 ft 403 kts 252°
2026-05-08 11:24 57.40777 38.84458 26702 ft 403 kts 252°
2026-05-08 11:24 57.39822 38.79572 26710 ft 403 kts 252°
2026-05-08 11:25 57.38864 38.74684 26726 ft 403 kts 252°
2026-05-08 11:25 57.37905 38.69801 26706 ft 403 kts 251°
2026-05-08 11:25 57.36943 38.64921 26722 ft 403 kts 251°
2026-05-08 11:25 57.35979 38.60037 26708 ft 404 kts 251°
2026-05-08 11:26 57.35011 38.55143 26731 ft 404 kts 251°
2026-05-08 11:26 57.34043 38.50268 26722 ft 404 kts 251°
2026-05-08 11:26 57.33083 38.45438 26721 ft 404 kts 251°
2026-05-08 11:26 57.32098 38.40490 26725 ft 404 kts 251°
2026-05-08 11:27 57.31137 38.35682 26720 ft 404 kts 251°
2026-05-08 11:27 57.30158 38.30802 26721 ft 405 kts 251°
2026-05-08 11:27 57.29178 38.25923 26730 ft 405 kts 251°
2026-05-08 11:27 57.28197 38.21046 26722 ft 405 kts 251°
2026-05-08 11:28 57.27215 38.16174 26723 ft 405 kts 251°
2026-05-08 11:28 57.26231 38.11301 26722 ft 405 kts 251°
2026-05-08 11:28 57.25245 38.06432 26728 ft 405 kts 251°
2026-05-08 11:28 57.24254 38.01547 26728 ft 406 kts 251°
2026-05-08 11:29 57.23262 37.96666 26730 ft 406 kts 251°
2026-05-08 11:29 57.22268 37.91794 26730 ft 406 kts 251°
2026-05-08 11:29 57.21271 37.86910 26729 ft 406 kts 251°
2026-05-08 11:29 57.20273 37.82039 26727 ft 406 kts 251°
2026-05-08 11:30 57.19276 37.77178 26730 ft 406 kts 251°
2026-05-08 11:30 57.18270 37.72286 26731 ft 406 kts 251°
2026-05-08 11:30 57.17264 37.67414 26732 ft 407 kts 251°
2026-05-08 11:30 57.16216 37.62579 26729 ft 407 kts 248°
2026-05-08 11:31 57.15011 37.57853 26732 ft 408 kts 247°
2026-05-08 11:31 57.13800 37.53115 26729 ft 408 kts 247°
2026-05-08 11:31 57.12616 37.48435 26730 ft 408 kts 247°
2026-05-08 11:31 57.11421 37.43702 26736 ft 408 kts 247°
2026-05-08 11:32 57.10224 37.38967 26737 ft 409 kts 247°
2026-05-08 11:32 57.09021 37.34225 26735 ft 409 kts 247°
2026-05-08 11:32 57.07814 37.29476 26737 ft 409 kts 247°
2026-05-08 11:32 57.06607 37.24741 26740 ft 410 kts 247°
2026-05-08 11:33 57.05397 37.20007 26739 ft 410 kts 247°
2026-05-08 11:33 57.04182 37.15262 26745 ft 410 kts 247°
2026-05-08 11:33 57.02967 37.10527 26742 ft 410 kts 247°
2026-05-08 11:33 57.01747 37.05784 26743 ft 411 kts 247°
2026-05-08 11:34 57.00525 37.01040 26740 ft 411 kts 246°
2026-05-08 11:34 56.99303 36.96306 26741 ft 411 kts 246°
2026-05-08 11:34 56.98077 36.91567 26744 ft 411 kts 246°
2026-05-08 11:34 56.96849 36.86832 26749 ft 411 kts 246°
2026-05-08 11:35 56.95618 36.82104 26746 ft 411 kts 246°
2026-05-08 11:35 56.94380 36.77374 26748 ft 412 kts 246°
2026-05-08 11:35 56.93138 36.72641 26745 ft 412 kts 246°
2026-05-08 11:35 56.91898 36.67922 26748 ft 412 kts 246°
2026-05-08 11:36 56.90656 36.63202 26745 ft 412 kts 246°
2026-05-08 11:36 56.89407 36.58467 26748 ft 412 kts 246°
2026-05-08 11:36 56.88158 36.53744 26756 ft 413 kts 246°
2026-05-08 11:36 56.86907 36.49022 26751 ft 413 kts 246°
2026-05-08 11:37 56.85660 36.44325 26751 ft 413 kts 246°
2026-05-08 11:37 56.84402 36.39589 26753 ft 413 kts 246°
2026-05-08 11:37 56.83143 36.34860 26749 ft 413 kts 246°
2026-05-08 11:37 56.81884 36.30144 26748 ft 414 kts 246°
2026-05-08 11:38 56.80617 36.25418 26746 ft 414 kts 246°
2026-05-08 11:38 56.79349 36.20714 26750 ft 414 kts 246°
2026-05-08 11:38 56.78092 36.16058 26749 ft 414 kts 246°
2026-05-08 11:38 56.76817 36.11339 26759 ft 414 kts 246°
2026-05-08 11:39 56.75548 36.06646 26753 ft 414 kts 245°
2026-05-08 11:39 56.74265 36.01916 26756 ft 415 kts 245°
2026-05-08 11:39 56.72990 35.97209 26750 ft 415 kts 246°
2026-05-08 11:39 56.71728 35.92502 26753 ft 415 kts 246°
2026-05-08 11:40 56.70458 35.87761 26769 ft 416 kts 246°
2026-05-08 11:40 56.69187 35.83031 26746 ft 416 kts 246°
2026-05-08 11:40 56.67911 35.78303 26753 ft 416 kts 245°
2026-05-08 11:40 56.66621 35.73576 26767 ft 417 kts 245°
2026-05-08 11:41 56.65328 35.68871 26744 ft 417 kts 245°
2026-05-08 11:41 56.64031 35.64160 26769 ft 417 kts 245°
2026-05-08 11:41 56.62740 35.59454 26756 ft 418 kts 245°
2026-05-08 11:41 56.61440 35.54708 26769 ft 418 kts 245°
2026-05-08 11:42 56.60147 35.49987 26758 ft 418 kts 245°
2026-05-08 11:42 56.58849 35.45268 26764 ft 418 kts 245°
2026-05-08 11:42 56.57545 35.40542 26743 ft 418 kts 245°
2026-05-08 11:42 56.56238 35.35829 26767 ft 418 kts 245°
2026-05-08 11:43 56.54934 35.31150 26762 ft 419 kts 245°
2026-05-08 11:43 56.53615 35.26422 26759 ft 419 kts 245°
2026-05-08 11:43 56.52294 35.21698 26756 ft 419 kts 245°
2026-05-08 11:43 56.50978 35.16996 26763 ft 419 kts 245°
2026-05-08 11:44 56.49660 35.12291 26758 ft 419 kts 245°
2026-05-08 11:44 56.48355 35.07645 26759 ft 419 kts 245°
2026-05-08 11:44 56.47033 35.02944 26759 ft 419 kts 244°
2026-05-08 11:44 56.45699 34.98218 26764 ft 420 kts 244°
2026-05-08 11:45 56.44369 34.93516 26761 ft 420 kts 244°
2026-05-08 11:45 56.43037 34.88822 26752 ft 420 kts 244°
2026-05-08 11:45 56.41697 34.84109 26761 ft 421 kts 244°
2026-05-08 11:45 56.40361 34.79419 26764 ft 421 kts 244°
2026-05-08 11:46 56.39035 34.74773 26762 ft 421 kts 244°
2026-05-08 11:46 56.37670 34.69998 26762 ft 422 kts 244°
2026-05-08 11:46 56.36326 34.65301 26763 ft 422 kts 244°
2026-05-08 11:46 56.34999 34.60672 26762 ft 422 kts 244°
2026-05-08 11:47 56.33644 34.55954 26762 ft 422 kts 244°
2026-05-08 11:47 56.32289 34.51252 26764 ft 422 kts 244°
2026-05-08 11:47 56.30935 34.46561 26763 ft 423 kts 244°
2026-05-08 11:47 56.29576 34.41865 26763 ft 423 kts 244°
2026-05-08 11:48 56.28214 34.37169 26761 ft 423 kts 243°
2026-05-08 11:48 56.26847 34.32461 26763 ft 424 kts 243°
2026-05-08 11:48 56.25474 34.27741 26760 ft 424 kts 243°
2026-05-08 11:48 56.24103 34.23033 26762 ft 425 kts 243°
2026-05-08 11:49 56.22729 34.18326 26760 ft 425 kts 243°
2026-05-08 11:49 56.21358 34.13640 26762 ft 425 kts 243°
2026-05-08 11:49 56.19977 34.08926 26761 ft 425 kts 243°
2026-05-08 11:49 56.18598 34.04229 26765 ft 426 kts 243°
2026-05-08 11:50 56.17214 33.99525 26765 ft 426 kts 243°
2026-05-08 11:50 56.15829 33.94827 26765 ft 426 kts 243°
2026-05-08 11:50 56.14452 33.90169 26763 ft 427 kts 243°
2026-05-08 11:50 56.13063 33.85476 26763 ft 427 kts 243°
2026-05-08 11:51 56.11669 33.80776 26767 ft 427 kts 243°
2026-05-08 11:51 56.10272 33.76073 26764 ft 428 kts 243°
2026-05-08 11:51 56.08868 33.71361 26764 ft 428 kts 243°
2026-05-08 11:51 56.07449 33.66603 26762 ft 428 kts 243°
2026-05-08 11:52 56.06064 33.61972 26763 ft 428 kts 243°
2026-05-08 11:52 56.04657 33.57273 26766 ft 428 kts 243°
2026-05-08 11:52 56.03246 33.52576 26762 ft 429 kts 243°
2026-05-08 11:52 56.02313 33.49472 26764 ft 429 kts 242°
2026-05-08 11:53 56.00893 33.44756 26762 ft 429 kts 242°
2026-05-08 11:53 55.99478 33.40068 26763 ft 429 kts 242°
2026-05-08 11:53 55.97577 33.33781 26763 ft 429 kts 242°
2026-05-08 11:53 55.96641 33.30691 26769 ft 429 kts 242°
2026-05-08 11:54 55.95218 33.26002 26759 ft 429 kts 242°
2026-05-08 11:54 55.93795 33.21325 26766 ft 430 kts 242°
2026-05-08 11:54 55.92361 33.16620 26764 ft 430 kts 242°
2026-05-08 11:54 55.90933 33.11941 26761 ft 430 kts 242°
2026-05-08 11:55 55.89512 33.07289 26767 ft 431 kts 242°
2026-05-08 11:55 55.88062 33.02560 26762 ft 431 kts 242°
2026-05-08 11:55 55.86658 32.97853 26758 ft 431 kts 245°
2026-05-08 11:55 55.85518 32.93007 26758 ft 431 kts 250°
2026-05-08 11:56 55.84589 32.87903 26761 ft 432 kts 255°
2026-05-08 11:56 55.83926 32.82697 26758 ft 432 kts 257°
2026-05-08 11:56 55.83287 32.77472 26762 ft 432 kts 257°
2026-05-08 11:56 55.82620 32.72230 26757 ft 433 kts 256°
2026-05-08 11:57 55.81946 32.67020 26759 ft 433 kts 256°
2026-05-08 11:57 55.81272 32.61849 26756 ft 434 kts 256°
2026-05-08 11:57 55.80592 32.56650 26757 ft 434 kts 256°
2026-05-08 11:57 55.79904 32.51393 26754 ft 434 kts 256°
2026-05-08 11:58 55.79218 32.46164 26751 ft 435 kts 256°
2026-05-08 11:58 55.78531 32.40947 26754 ft 435 kts 256°
2026-05-08 11:58 55.77836 32.35688 26752 ft 435 kts 256°
2026-05-08 11:59 55.76447 32.25227 26757 ft 436 kts 256°
2026-05-08 11:59 55.75747 32.19982 26759 ft 436 kts 256°
2026-05-08 11:59 55.75046 32.14750 26758 ft 436 kts 256°
2026-05-08 11:59 55.74343 32.09515 26752 ft 436 kts 255°
2026-05-08 12:00 55.73643 32.04327 26749 ft 437 kts 255°
2026-05-08 12:00 55.72930 31.99064 26753 ft 437 kts 255°
2026-05-08 12:00 55.72225 31.93870 26755 ft 437 kts 255°
2026-05-08 12:00 55.71504 31.88583 26746 ft 437 kts 255°
2026-05-08 12:01 55.70788 31.83345 26746 ft 438 kts 255°
2026-05-08 12:01 55.70069 31.78111 26747 ft 438 kts 255°
2026-05-08 12:01 55.69344 31.72852 26749 ft 438 kts 255°
2026-05-08 12:01 55.68618 31.67595 26749 ft 438 kts 255°
2026-05-08 12:02 55.67892 31.62361 26745 ft 439 kts 255°
2026-05-08 12:02 55.67159 31.57094 26746 ft 439 kts 255°
2026-05-08 12:02 55.66427 31.51857 26743 ft 439 kts 255°
2026-05-08 12:02 55.65692 31.46612 26739 ft 439 kts 255°
2026-05-08 12:03 55.64954 31.41363 26744 ft 439 kts 255°
2026-05-08 12:03 55.64214 31.36115 26750 ft 439 kts 255°
2026-05-08 12:03 55.63486 31.30969 26744 ft 439 kts 255°
2026-05-08 12:03 55.62739 31.25712 26749 ft 439 kts 254°
2026-05-08 12:04 55.61993 31.20474 26742 ft 439 kts 254°
2026-05-08 12:04 55.61242 31.15221 26737 ft 440 kts 254°
2026-05-08 12:04 55.60490 31.09979 26738 ft 440 kts 254°
2026-05-08 12:04 55.59735 31.04727 26743 ft 440 kts 254°
2026-05-08 12:05 55.58980 30.99492 26739 ft 440 kts 254°
2026-05-08 12:05 55.58219 30.94245 26736 ft 441 kts 254°
2026-05-08 12:05 55.57431 30.89006 26737 ft 441 kts 253°
2026-05-08 12:05 55.56622 30.83784 26738 ft 441 kts 253°
2026-05-08 12:06 55.55805 30.78561 26735 ft 441 kts 253°
2026-05-08 12:06 55.54987 30.73335 26737 ft 441 kts 253°
2026-05-08 12:06 55.54170 30.68104 26734 ft 441 kts 253°
2026-05-08 12:06 55.53351 30.62862 26727 ft 442 kts 253°
2026-05-08 12:07 55.52546 30.57714 26729 ft 442 kts 253°
2026-05-08 12:07 55.51714 30.52406 26729 ft 442 kts 253°
2026-05-08 12:07 55.50894 30.47188 26728 ft 442 kts 253°
2026-05-08 12:07 55.50077 30.42019 26728 ft 443 kts 253°
2026-05-08 12:08 55.49269 30.36798 26732 ft 443 kts 253°
2026-05-08 12:08 55.48471 30.31539 26729 ft 443 kts 253°
2026-05-08 12:08 55.47678 30.26289 26729 ft 443 kts 253°
2026-05-08 12:08 55.46884 30.21048 26726 ft 443 kts 253°
2026-05-08 12:09 55.46086 30.15801 26726 ft 443 kts 253°
2026-05-08 12:09 55.45282 30.10542 26725 ft 443 kts 253°
2026-05-08 12:09 55.44476 30.05300 26726 ft 443 kts 253°
2026-05-08 12:09 55.43669 30.00076 26724 ft 443 kts 253°
2026-05-08 12:10 55.42848 29.94775 26721 ft 444 kts 253°
2026-05-08 12:10 55.42034 29.89542 26725 ft 444 kts 253°
2026-05-08 12:10 55.41221 29.84329 26724 ft 444 kts 253°
2026-05-08 12:10 55.40399 29.79080 26727 ft 444 kts 253°
2026-05-08 12:11 55.39578 29.73849 26724 ft 444 kts 253°
2026-05-08 12:11 55.38756 29.68622 26724 ft 444 kts 253°
2026-05-08 12:11 55.37936 29.63433 26726 ft 445 kts 253°
2026-05-08 12:11 55.37108 29.58207 26726 ft 445 kts 253°
2026-05-08 12:12 55.36275 29.52965 26721 ft 445 kts 252°
2026-05-08 12:12 55.35440 29.47725 26725 ft 445 kts 252°
2026-05-08 12:12 55.34601 29.42475 26722 ft 446 kts 252°
2026-05-08 12:12 55.33759 29.37228 26723 ft 446 kts 252°
2026-05-08 12:13 55.32921 29.32014 26717 ft 446 kts 252°
2026-05-08 12:13 55.32072 29.26751 26725 ft 446 kts 252°
2026-05-08 12:13 55.31223 29.21508 26724 ft 446 kts 252°
2026-05-08 12:13 55.30373 29.16273 26720 ft 446 kts 252°
2026-05-08 12:14 55.29522 29.11041 26727 ft 446 kts 252°
2026-05-08 12:14 55.28667 29.05808 26729 ft 446 kts 252°
2026-05-08 12:14 55.27812 29.00579 26721 ft 446 kts 252°
2026-05-08 12:14 55.26954 28.95356 26733 ft 445 kts 252°
2026-05-08 12:15 55.26104 28.90208 26721 ft 445 kts 252°
2026-05-08 12:15 55.25237 28.84984 26723 ft 445 kts 252°
2026-05-08 12:15 55.24367 28.79762 26724 ft 445 kts 252°
2026-05-08 12:15 55.23498 28.74564 26722 ft 445 kts 251°
2026-05-08 12:16 55.22625 28.69354 26722 ft 445 kts 251°
2026-05-08 12:16 55.21750 28.64145 26723 ft 445 kts 251°
2026-05-08 12:16 55.20876 28.58952 26717 ft 446 kts 251°
2026-05-08 12:16 55.19999 28.53760 26724 ft 446 kts 251°
2026-05-08 12:17 55.19113 28.48528 26724 ft 446 kts 251°
2026-05-08 12:17 55.18229 28.43321 26727 ft 447 kts 251°
2026-05-08 12:17 55.17354 28.38182 26720 ft 447 kts 251°
2026-05-08 12:17 55.16450 28.32883 26719 ft 448 kts 251°
2026-05-08 12:18 55.15562 28.27697 26725 ft 448 kts 251°
2026-05-08 12:18 55.14670 28.22472 26722 ft 449 kts 252°
2026-05-08 12:18 55.13925 28.17207 26713 ft 450 kts 256°
2026-05-08 12:18 55.13311 28.11871 26723 ft 451 kts 256°
2026-05-08 12:19 55.12708 28.06468 26721 ft 451 kts 256°
2026-05-08 12:19 55.12101 28.01085 26723 ft 451 kts 256°
2026-05-08 12:19 55.11482 27.95704 26723 ft 451 kts 256°
2026-05-08 12:19 55.10851 27.90325 26721 ft 451 kts 256°
2026-05-08 12:20 55.10211 27.84945 26719 ft 451 kts 256°
2026-05-08 12:20 55.09569 27.79590 26721 ft 451 kts 256°
2026-05-08 12:20 55.08923 27.74236 26723 ft 451 kts 255°
2026-05-08 12:20 55.08273 27.68865 26717 ft 451 kts 255°
2026-05-08 12:21 55.07622 27.63501 26717 ft 451 kts 255°
2026-05-08 12:21 55.06974 27.58178 26721 ft 450 kts 255°
2026-05-08 12:21 55.06318 27.52812 26718 ft 450 kts 255°
2026-05-08 12:21 55.05672 27.47541 26721 ft 450 kts 255°
2026-05-08 12:22 55.05014 27.42206 26716 ft 450 kts 255°
2026-05-08 12:22 55.04348 27.36882 26721 ft 450 kts 255°
2026-05-08 12:22 55.03672 27.31564 26717 ft 449 kts 255°
2026-05-08 12:22 55.02991 27.26235 26718 ft 449 kts 255°
2026-05-08 12:23 55.02311 27.20927 26715 ft 449 kts 254°
2026-05-08 12:23 55.01628 27.15613 26714 ft 449 kts 254°
2026-05-08 12:23 55.00944 27.10302 26712 ft 449 kts 254°
2026-05-08 12:23 55.00259 27.04986 26714 ft 449 kts 254°
2026-05-08 12:24 54.99571 26.99678 26718 ft 449 kts 254°
2026-05-08 12:24 54.98882 26.94383 26715 ft 449 kts 254°
2026-05-08 12:24 54.98190 26.89081 26713 ft 450 kts 254°
2026-05-08 12:24 54.97495 26.83765 26717 ft 450 kts 254°
2026-05-08 12:25 54.96797 26.78454 26714 ft 451 kts 254°
2026-05-08 12:25 54.96094 26.73128 26717 ft 451 kts 254°
2026-05-08 12:25 54.95390 26.67809 26715 ft 452 kts 254°
2026-05-08 12:25 54.94689 26.62535 26716 ft 453 kts 254°
2026-05-08 12:26 54.93977 26.57193 26715 ft 453 kts 254°
2026-05-08 12:26 54.93262 26.51848 26713 ft 453 kts 254°
2026-05-08 12:26 54.92544 26.46504 26715 ft 454 kts 254°
2026-05-08 12:26 54.91824 26.41166 26720 ft 454 kts 254°
2026-05-08 12:27 54.91103 26.35826 26721 ft 454 kts 254°
2026-05-08 12:27 54.90375 26.30455 26723 ft 455 kts 253°
2026-05-08 12:27 54.89648 26.25114 26706 ft 455 kts 253°
2026-05-08 12:27 54.88919 26.19784 26704 ft 455 kts 253°
2026-05-08 12:28 54.88183 26.14432 26729 ft 455 kts 253°
2026-05-08 12:28 54.87447 26.09099 26714 ft 455 kts 253°
2026-05-08 12:28 54.86715 26.03806 26708 ft 455 kts 253°
2026-05-08 12:28 54.85975 25.98475 26705 ft 455 kts 253°
2026-05-08 12:29 54.85232 25.93124 26721 ft 456 kts 253°
2026-05-08 12:29 54.84485 25.87766 26715 ft 456 kts 253°
2026-05-08 12:29 54.83737 25.82431 26721 ft 456 kts 253°
2026-05-08 12:29 54.82896 25.77098 26717 ft 455 kts 249°
2026-05-08 12:30 54.81741 25.72036 26711 ft 452 kts 243°
2026-05-08 12:30 54.80440 25.67065 26716 ft 452 kts 243°
2026-05-08 12:30 54.79162 25.62071 26715 ft 453 kts 243°
2026-05-08 12:30 54.77897 25.57062 26709 ft 454 kts 244°
2026-05-08 12:31 54.76639 25.52052 26719 ft 454 kts 244°
2026-05-08 12:31 54.75382 25.47035 26708 ft 454 kts 244°
2026-05-08 12:31 54.74123 25.42020 26705 ft 454 kts 244°
2026-05-08 12:31 54.72861 25.37006 26703 ft 454 kts 243°
2026-05-08 12:32 54.71598 25.32000 26701 ft 454 kts 243°
2026-05-08 12:32 54.70334 25.27004 26708 ft 454 kts 243°
2026-05-08 12:32 54.69063 25.21990 26705 ft 454 kts 243°
2026-05-08 12:32 54.67808 25.17059 26706 ft 454 kts 243°
2026-05-08 12:33 54.66536 25.12067 26705 ft 454 kts 243°
2026-05-08 12:33 54.65258 25.07065 26706 ft 454 kts 243°
2026-05-08 12:33 54.63980 25.02075 26704 ft 454 kts 243°
2026-05-08 12:33 54.62701 24.97089 26710 ft 454 kts 243°
2026-05-08 12:34 54.61417 24.92100 26715 ft 454 kts 243°
2026-05-08 12:34 54.60133 24.87116 26717 ft 455 kts 243°
2026-05-08 12:34 54.58842 24.82120 26710 ft 455 kts 243°
2026-05-08 12:34 54.57549 24.77127 26707 ft 455 kts 243°
2026-05-08 12:35 54.56258 24.72151 26709 ft 455 kts 243°
2026-05-08 12:35 54.54983 24.67249 26717 ft 454 kts 243°
2026-05-08 12:35 54.53689 24.62283 26718 ft 454 kts 243°
2026-05-08 12:35 54.52395 24.57328 26717 ft 455 kts 243°
2026-05-08 12:36 54.51092 24.52351 26717 ft 455 kts 243°
2026-05-08 12:36 54.49793 24.47399 26717 ft 455 kts 242°
2026-05-08 12:36 54.48485 24.42427 26721 ft 455 kts 242°
2026-05-08 12:36 54.47175 24.37456 26721 ft 456 kts 242°
2026-05-08 12:37 54.45864 24.32492 26718 ft 456 kts 242°
2026-05-08 12:37 54.44551 24.27530 26724 ft 457 kts 242°
2026-05-08 12:37 54.43235 24.22566 26724 ft 457 kts 242°
2026-05-08 12:37 54.41913 24.17596 26734 ft 458 kts 242°
2026-05-08 12:38 54.40588 24.12623 26730 ft 459 kts 242°
2026-05-08 12:38 54.39253 24.07624 26730 ft 460 kts 242°
2026-05-08 12:38 54.37919 24.02637 26723 ft 460 kts 242°
2026-05-08 12:38 54.36583 23.97655 26713 ft 460 kts 242°
2026-05-08 12:39 54.35248 23.92687 26722 ft 459 kts 242°
2026-05-08 12:39 54.33909 23.87715 26725 ft 459 kts 242°
2026-05-08 12:39 54.32568 23.82745 26727 ft 459 kts 242°
2026-05-08 12:39 54.31242 23.77841 26724 ft 458 kts 242°
2026-05-08 12:40 54.29885 23.72835 26731 ft 458 kts 242°
2026-05-08 12:40 54.28559 23.67955 26735 ft 458 kts 241°
2026-05-08 12:40 54.27213 23.63014 26735 ft 458 kts 241°
2026-05-08 12:40 54.25865 23.58072 26723 ft 459 kts 241°
2026-05-08 12:41 54.24518 23.53145 26744 ft 459 kts 241°
2026-05-08 12:41 54.23162 23.48198 26726 ft 459 kts 241°
2026-05-08 12:41 54.21800 23.43240 26725 ft 459 kts 241°
2026-05-08 12:41 54.20442 23.38302 26727 ft 459 kts 241°
2026-05-08 12:42 54.19081 23.33369 26729 ft 459 kts 241°
2026-05-08 12:42 54.17715 23.28424 26729 ft 460 kts 241°
2026-05-08 12:42 54.16353 23.23505 26727 ft 459 kts 240°
2026-05-08 12:42 54.14982 23.18567 26725 ft 459 kts 240°
2026-05-08 12:43 54.13613 23.13642 26725 ft 459 kts 240°
2026-05-08 12:43 54.12243 23.08724 26732 ft 459 kts 240°
2026-05-08 12:43 54.11336 23.05474 26730 ft 459 kts 240°
2026-05-08 12:43 54.09963 23.00559 26732 ft 459 kts 240°
2026-05-08 12:44 54.08128 22.94006 26735 ft 458 kts 241°
2026-05-08 12:44 54.07281 22.90705 26736 ft 460 kts 244°
2026-05-08 12:44 54.06255 22.85525 26726 ft 465 kts 251°
2026-05-08 12:44 54.05281 22.78415 26743 ft 466 kts 252°
2026-05-08 12:45 54.04534 22.73051 26736 ft 466 kts 252°
2026-05-08 12:45 54.04018 22.69445 26732 ft 466 kts 252°
2026-05-08 12:45 54.02985 22.62353 26739 ft 467 kts 251°
2026-05-08 12:45 54.02459 22.58782 26740 ft 467 kts 251°
2026-05-08 12:46 54.01659 22.53358 26739 ft 468 kts 251°
2026-05-08 12:46 54.00863 22.47986 26737 ft 469 kts 251°
2026-05-08 12:46 54.00075 22.42677 26741 ft 470 kts 251°
2026-05-08 12:46 53.99263 22.37218 26741 ft 470 kts 251°
2026-05-08 12:47 53.98470 22.31898 26749 ft 471 kts 251°
2026-05-08 12:47 53.97658 22.26467 26745 ft 472 kts 251°
2026-05-08 12:47 53.96845 22.21052 26741 ft 473 kts 251°
2026-05-08 12:47 53.96029 22.15630 26742 ft 474 kts 251°
2026-05-08 12:48 53.95206 22.10189 26745 ft 474 kts 251°
2026-05-08 12:48 53.94384 22.04767 26746 ft 475 kts 251°
2026-05-08 12:48 53.93564 21.99379 26757 ft 475 kts 251°
2026-05-08 12:48 53.92731 21.93919 26743 ft 475 kts 251°
2026-05-08 12:49 53.91900 21.88491 26746 ft 475 kts 251°
2026-05-08 12:49 53.91080 21.83156 26740 ft 474 kts 251°
2026-05-08 12:49 53.90243 21.77720 26742 ft 474 kts 251°
2026-05-08 12:49 53.89413 21.72347 26743 ft 473 kts 251°
2026-05-08 12:50 53.88584 21.67007 26745 ft 472 kts 250°
2026-05-08 12:50 53.87739 21.61580 26748 ft 471 kts 250°
2026-05-08 12:50 53.86898 21.56193 26745 ft 471 kts 250°
2026-05-08 12:50 53.86061 21.50850 26746 ft 470 kts 250°
2026-05-08 12:51 53.85219 21.45490 26751 ft 469 kts 250°
2026-05-08 12:51 53.83536 21.34829 26749 ft 468 kts 251°
2026-05-08 12:51 53.82703 21.29580 26755 ft 468 kts 251°
2026-05-08 12:52 53.81844 21.24178 26751 ft 468 kts 251°
2026-05-08 12:52 53.80147 21.13546 26745 ft 468 kts 251°
2026-05-08 12:52 53.79304 21.08289 26750 ft 468 kts 251°
2026-05-08 12:53 53.78440 21.02905 26745 ft 468 kts 251°
2026-05-08 12:53 53.77596 20.97667 26750 ft 468 kts 251°
2026-05-08 12:53 53.76736 20.92346 26761 ft 469 kts 251°
2026-05-08 12:53 53.75877 20.87046 26749 ft 469 kts 251°
2026-05-08 12:54 53.75010 20.81716 26762 ft 470 kts 251°
2026-05-08 12:54 53.74142 20.76395 26761 ft 470 kts 251°
2026-05-08 12:54 53.73273 20.71082 26750 ft 470 kts 251°
2026-05-08 12:54 53.72398 20.65745 26750 ft 471 kts 251°
2026-05-08 12:55 53.71524 20.60432 26751 ft 471 kts 251°
2026-05-08 12:55 53.70648 20.55117 26751 ft 471 kts 251°
2026-05-08 12:55 53.69760 20.49759 26753 ft 471 kts 251°
2026-05-08 12:55 53.68875 20.44431 26746 ft 471 kts 251°
2026-05-08 12:56 53.67991 20.39123 26744 ft 471 kts 251°
2026-05-08 12:56 53.67114 20.33864 26745 ft 471 kts 251°
2026-05-08 12:56 53.66223 20.28537 26750 ft 471 kts 251°
2026-05-08 12:56 53.65321 20.23153 26744 ft 471 kts 251°
2026-05-08 12:57 53.64428 20.17839 26743 ft 471 kts 251°
2026-05-08 12:57 53.63534 20.12544 26742 ft 471 kts 251°
2026-05-08 12:57 53.62648 20.07303 26744 ft 470 kts 251°
2026-05-08 12:57 53.61739 20.01945 26741 ft 470 kts 251°
2026-05-08 12:58 53.60854 19.96744 26739 ft 470 kts 251°
2026-05-08 12:58 53.59950 19.91445 26739 ft 469 kts 251°
2026-05-08 12:58 53.59047 19.86171 26741 ft 468 kts 251°
2026-05-08 12:58 53.58144 19.80916 26739 ft 467 kts 251°
2026-05-08 12:59 53.57240 19.75666 26735 ft 467 kts 251°
2026-05-08 12:59 53.56329 19.70396 26740 ft 466 kts 251°
2026-05-08 12:59 53.55424 19.65170 26740 ft 465 kts 251°
2026-05-08 12:59 53.54519 19.59961 26744 ft 465 kts 251°
2026-05-08 13:00 53.53610 19.54746 26742 ft 464 kts 251°
2026-05-08 13:00 53.52700 19.49536 26739 ft 464 kts 251°
2026-05-08 13:00 53.51791 19.44349 26736 ft 463 kts 251°
2026-05-08 13:00 53.50879 19.39155 26739 ft 463 kts 251°
2026-05-08 13:01 53.49967 19.33978 26739 ft 462 kts 251°
2026-05-08 13:01 53.49051 19.28803 26742 ft 462 kts 251°
2026-05-08 13:01 53.48139 19.23677 26740 ft 462 kts 251°
2026-05-08 13:01 53.47218 19.18523 26737 ft 461 kts 251°
2026-05-08 13:02 53.46295 19.13373 26737 ft 461 kts 252°
2026-05-08 13:02 53.45369 19.08212 26738 ft 460 kts 252°
2026-05-08 13:02 53.44443 19.03066 26740 ft 460 kts 252°
2026-05-08 13:02 53.43517 18.97932 26741 ft 459 kts 252°
2026-05-08 13:03 53.42592 18.92825 26753 ft 456 kts 253°
2026-05-08 13:03 53.41675 18.87771 26745 ft 451 kts 253°
2026-05-08 13:03 53.40763 18.82752 26746 ft 449 kts 253°
2026-05-08 13:03 53.39853 18.77758 26747 ft 449 kts 253°
2026-05-08 13:04 53.38938 18.72748 26751 ft 451 kts 253°
2026-05-08 13:04 53.38011 18.67691 26756 ft 455 kts 253°
2026-05-08 13:04 53.37081 18.62634 26746 ft 454 kts 253°
2026-05-08 13:04 53.36151 18.57593 26738 ft 452 kts 253°
2026-05-08 13:05 53.35221 18.52561 26738 ft 451 kts 253°
2026-05-08 13:05 53.34304 18.47608 26741 ft 450 kts 253°
2026-05-08 13:05 53.33375 18.42611 26744 ft 449 kts 253°
2026-05-08 13:05 53.32450 18.37646 26743 ft 448 kts 253°
2026-05-08 13:06 53.31522 18.32681 26751 ft 447 kts 254°
2026-05-08 13:06 53.30592 18.27708 26739 ft 447 kts 254°
2026-05-08 13:06 53.29661 18.22754 26745 ft 446 kts 254°
2026-05-08 13:06 53.28730 18.17810 26740 ft 446 kts 254°
2026-05-08 13:07 53.27798 18.12875 26742 ft 446 kts 254°
2026-05-08 13:07 53.26860 18.07921 26739 ft 446 kts 254°
2026-05-08 13:07 53.25925 18.02993 26737 ft 446 kts 254°
2026-05-08 13:07 53.24982 17.98041 26740 ft 446 kts 254°
2026-05-08 13:08 53.24042 17.93110 26737 ft 446 kts 254°
2026-05-08 13:08 53.23097 17.88167 26735 ft 445 kts 254°
2026-05-08 13:08 53.22153 17.83246 26736 ft 445 kts 254°
2026-05-08 13:08 53.21219 17.78385 26736 ft 445 kts 254°
2026-05-08 13:09 53.20271 17.73467 26739 ft 445 kts 254°
2026-05-08 13:09 53.19319 17.68542 26740 ft 445 kts 254°
2026-05-08 13:09 53.18368 17.63630 26744 ft 445 kts 254°
2026-05-08 13:09 53.17415 17.58725 26747 ft 445 kts 254°
2026-05-08 13:10 53.16461 17.53828 26754 ft 445 kts 253°
2026-05-08 13:10 53.15501 17.48908 26753 ft 445 kts 253°
2026-05-08 13:10 53.14542 17.44013 26759 ft 445 kts 253°
2026-05-08 13:10 53.13578 17.39100 26764 ft 445 kts 253°
2026-05-08 13:11 53.12616 17.34207 26767 ft 445 kts 253°
2026-05-08 13:11 53.11649 17.29305 26770 ft 445 kts 253°
2026-05-08 13:11 53.10681 17.24403 26760 ft 446 kts 253°
2026-05-08 13:11 53.09711 17.19505 26762 ft 446 kts 253°
2026-05-08 13:12 53.08741 17.14618 26766 ft 446 kts 253°
2026-05-08 13:12 53.07762 17.09708 26766 ft 446 kts 253°
2026-05-08 13:12 53.06787 17.04834 26766 ft 446 kts 253°
2026-05-08 13:12 53.05817 17.00004 26769 ft 446 kts 253°
2026-05-08 13:13 53.04833 16.95113 26768 ft 446 kts 253°
2026-05-08 13:13 53.03849 16.90233 26771 ft 446 kts 253°
2026-05-08 13:13 53.02863 16.85352 26771 ft 446 kts 252°
2026-05-08 13:13 53.01875 16.80470 26768 ft 446 kts 252°
2026-05-08 13:14 53.00883 16.75582 26792 ft 446 kts 252°
2026-05-08 13:14 52.99891 16.70701 26764 ft 446 kts 252°
2026-05-08 13:14 52.98895 16.65818 26766 ft 446 kts 252°
2026-05-08 13:14 52.97898 16.60941 26768 ft 446 kts 252°
2026-05-08 13:15 52.96899 16.56062 26775 ft 446 kts 252°
2026-05-08 13:15 52.95899 16.51199 26764 ft 446 kts 252°
2026-05-08 13:15 52.94899 16.46342 26779 ft 446 kts 252°
2026-05-08 13:15 52.93893 16.41465 26778 ft 445 kts 252°
2026-05-08 13:16 52.92889 16.36613 26771 ft 445 kts 252°
2026-05-08 13:16 52.91884 16.31768 26761 ft 445 kts 252°
2026-05-08 13:16 52.90872 16.26900 26776 ft 445 kts 252°
2026-05-08 13:16 52.89863 16.22056 26776 ft 445 kts 252°
2026-05-08 13:17 52.88849 16.17207 26779 ft 445 kts 252°
2026-05-08 13:17 52.87841 16.12389 26776 ft 445 kts 252°
2026-05-08 13:17 52.86827 16.07559 26775 ft 445 kts 252°
2026-05-08 13:17 52.85823 16.02785 26773 ft 445 kts 252°
2026-05-08 13:18 52.84805 15.97957 26767 ft 445 kts 252°
2026-05-08 13:18 52.83783 15.93118 26774 ft 444 kts 252°
2026-05-08 13:18 52.82758 15.88283 26777 ft 444 kts 252°
2026-05-08 13:18 52.81671 15.83492 26768 ft 445 kts 248°
2026-05-08 13:19 52.80293 15.78909 26772 ft 446 kts 241°
2026-05-08 13:19 52.78708 15.74489 26772 ft 446 kts 241°
2026-05-08 13:19 52.77147 15.70052 26772 ft 446 kts 242°
2026-05-08 13:19 52.75608 15.65607 26770 ft 446 kts 242°
2026-05-08 13:20 52.74072 15.61148 26774 ft 446 kts 242°
2026-05-08 13:20 52.72559 15.56751 26772 ft 446 kts 242°
2026-05-08 13:20 52.71026 15.52303 26771 ft 446 kts 242°
2026-05-08 13:20 52.69491 15.47863 26768 ft 446 kts 242°
2026-05-08 13:21 52.67947 15.43409 26767 ft 447 kts 242°
2026-05-08 13:21 52.66406 15.38971 26769 ft 447 kts 242°
2026-05-08 13:21 52.64859 15.34527 26773 ft 447 kts 241°
2026-05-08 13:21 52.63313 15.30094 26771 ft 447 kts 241°
2026-05-08 13:22 52.61765 15.25665 26773 ft 447 kts 241°
2026-05-08 13:22 52.60213 15.21232 26774 ft 447 kts 241°
2026-05-08 13:22 52.58664 15.16814 26772 ft 447 kts 241°
2026-05-08 13:22 52.57111 15.12393 26769 ft 447 kts 241°
2026-05-08 13:23 52.55553 15.07965 26770 ft 447 kts 241°
2026-05-08 13:23 52.53999 15.03556 26768 ft 447 kts 241°
2026-05-08 13:23 52.52439 14.99137 26766 ft 446 kts 241°
2026-05-08 13:23 52.50877 14.94722 26763 ft 446 kts 241°
2026-05-08 13:24 52.49320 14.90328 26764 ft 446 kts 241°
2026-05-08 13:24 52.47758 14.85926 26767 ft 447 kts 241°
2026-05-08 13:24 52.46224 14.81613 26761 ft 447 kts 241°
2026-05-08 13:24 52.44659 14.77215 26765 ft 447 kts 241°
2026-05-08 13:25 52.43090 14.72814 26766 ft 447 kts 241°
2026-05-08 13:25 52.41520 14.68422 26769 ft 447 kts 241°
2026-05-08 13:25 52.39960 14.64018 26769 ft 447 kts 242°
2026-05-08 13:25 52.38632 14.59443 26761 ft 446 kts 249°
2026-05-08 13:26 52.37589 14.54645 26772 ft 445 kts 253°
2026-05-08 13:26 52.36814 14.49743 26768 ft 445 kts 259°
2026-05-08 13:26 52.36236 14.44781 26767 ft 445 kts 259°
2026-05-08 13:26 52.35635 14.39804 26766 ft 445 kts 259°
2026-05-08 13:27 52.35017 14.34843 26763 ft 445 kts 259°
2026-05-08 13:27 52.34388 14.29862 26769 ft 445 kts 258°
2026-05-08 13:27 52.33756 14.24898 26769 ft 445 kts 258°
2026-05-08 13:27 52.33132 14.20000 26773 ft 445 kts 258°
2026-05-08 13:28 52.32500 14.15043 26771 ft 445 kts 258°
2026-05-08 13:28 52.31866 14.10094 26771 ft 445 kts 258°
2026-05-08 13:28 52.31226 14.05142 26773 ft 445 kts 258°
2026-05-08 13:28 52.30576 14.00200 26775 ft 445 kts 258°
2026-05-08 13:29 52.29922 13.95260 26775 ft 445 kts 258°
2026-05-08 13:29 52.29268 13.90329 26779 ft 445 kts 258°
2026-05-08 13:29 52.28611 13.85386 26778 ft 445 kts 258°
2026-05-08 13:29 52.27954 13.80444 26778 ft 445 kts 258°
2026-05-08 13:30 52.27295 13.75506 26780 ft 445 kts 258°
2026-05-08 13:30 52.26634 13.70568 26782 ft 445 kts 258°
2026-05-08 13:30 52.25976 13.65650 26783 ft 445 kts 258°
2026-05-08 13:30 52.25314 13.60704 26784 ft 445 kts 258°
2026-05-08 13:31 52.24876 13.57436 26783 ft 445 kts 258°
2026-05-08 13:31 52.23997 13.50901 26781 ft 445 kts 258°
2026-05-08 13:31 52.23331 13.45970 26784 ft 445 kts 258°
2026-05-08 13:31 52.22665 13.41049 26782 ft 444 kts 258°
2026-05-08 13:32 52.22214 13.37731 26782 ft 444 kts 258°
2026-05-08 13:32 52.21325 13.31215 26780 ft 444 kts 258°
2026-05-08 13:32 52.20870 13.27892 26780 ft 444 kts 258°
2026-05-08 13:32 52.19976 13.21381 26779 ft 444 kts 258°
2026-05-08 13:33 52.19530 13.18143 26781 ft 444 kts 258°
2026-05-08 13:33 52.18622 13.11573 26783 ft 444 kts 258°
2026-05-08 13:33 52.17941 13.06658 26775 ft 444 kts 258°
2026-05-08 13:33 52.17489 13.03402 26773 ft 444 kts 258°
2026-05-08 13:34 52.16804 12.98489 26780 ft 444 kts 258°
2026-05-08 13:34 52.16117 12.93582 26778 ft 444 kts 258°
2026-05-08 13:34 52.15432 12.88679 26779 ft 444 kts 258°
2026-05-08 13:34 52.14746 12.83770 26778 ft 444 kts 258°
2026-05-08 13:35 52.14058 12.78863 26783 ft 445 kts 258°
2026-05-08 13:35 52.13368 12.73948 26778 ft 445 kts 258°
2026-05-08 13:35 52.12676 12.69047 26781 ft 445 kts 257°
2026-05-08 13:35 52.11977 12.64140 26776 ft 445 kts 257°
2026-05-08 13:36 52.11267 12.59254 26779 ft 445 kts 257°
2026-05-08 13:36 52.10550 12.54361 26784 ft 445 kts 257°
2026-05-08 13:36 52.09833 12.49465 26783 ft 445 kts 257°
2026-05-08 13:36 52.09116 12.44575 26782 ft 445 kts 257°
2026-05-08 13:37 52.08397 12.39684 26783 ft 445 kts 257°
2026-05-08 13:37 52.07688 12.34859 26783 ft 445 kts 257°
2026-05-08 13:37 52.06970 12.29965 26786 ft 445 kts 257°
2026-05-08 13:37 52.06257 12.25082 26780 ft 445 kts 257°
2026-05-08 13:38 52.05539 12.20165 26781 ft 445 kts 257°
2026-05-08 13:38 52.04823 12.15270 26783 ft 445 kts 257°
2026-05-08 13:38 52.04103 12.10373 26784 ft 445 kts 257°
2026-05-08 13:38 52.03384 12.05490 26781 ft 445 kts 257°
2026-05-08 13:39 52.02658 12.00582 26782 ft 446 kts 257°
2026-05-08 13:39 52.01934 11.95704 26783 ft 446 kts 257°
2026-05-08 13:39 52.01206 11.90810 26782 ft 446 kts 257°
2026-05-08 13:39 52.00477 11.85918 26780 ft 446 kts 257°
2026-05-08 13:40 51.99745 11.81035 26781 ft 446 kts 257°
2026-05-08 13:40 51.98992 11.76154 26781 ft 446 kts 256°
2026-05-08 13:40 51.98187 11.71341 26777 ft 446 kts 255°
2026-05-08 13:40 51.97355 11.66512 26781 ft 446 kts 255°
2026-05-08 13:41 51.96514 11.61667 26787 ft 446 kts 255°
2026-05-08 13:41 51.95679 11.56829 26786 ft 446 kts 255°
2026-05-08 13:41 51.94846 11.51987 26781 ft 446 kts 255°
2026-05-08 13:41 51.94015 11.47141 26784 ft 446 kts 255°
2026-05-08 13:42 51.93184 11.42299 26786 ft 446 kts 255°
2026-05-08 13:42 51.92352 11.37462 26784 ft 446 kts 255°
2026-05-08 13:42 51.91517 11.32612 26782 ft 446 kts 255°
2026-05-08 13:42 51.90685 11.27797 26788 ft 446 kts 255°
2026-05-08 13:43 51.89845 11.22960 26790 ft 446 kts 255°
2026-05-08 13:43 51.88991 11.18103 26785 ft 447 kts 254°
2026-05-08 13:43 51.88126 11.13261 26774 ft 447 kts 254°
2026-05-08 13:43 51.87257 11.08432 26773 ft 447 kts 253°
2026-05-08 13:44 51.86258 11.03754 26775 ft 447 kts 248°
2026-05-08 13:44 51.84915 10.99192 26778 ft 447 kts 243°
2026-05-08 13:44 51.83487 10.94713 26778 ft 447 kts 244°
2026-05-08 13:44 51.82091 10.90226 26772 ft 447 kts 244°
2026-05-08 13:45 51.80707 10.85729 26770 ft 447 kts 244°
2026-05-08 13:45 51.79326 10.81219 26774 ft 447 kts 244°
2026-05-08 13:45 51.77949 10.76725 26774 ft 447 kts 244°
2026-05-08 13:45 51.76569 10.72232 26766 ft 448 kts 244°
2026-05-08 13:46 51.75182 10.67723 26766 ft 448 kts 244°
2026-05-08 13:46 51.73791 10.63211 26768 ft 448 kts 244°
2026-05-08 13:46 51.72401 10.58716 26771 ft 448 kts 244°
2026-05-08 13:46 51.71007 10.54220 26769 ft 448 kts 244°
2026-05-08 13:47 51.69615 10.49735 26773 ft 448 kts 244°
2026-05-08 13:47 51.68232 10.45290 26762 ft 448 kts 244°
2026-05-08 13:47 51.66815 10.40744 26772 ft 448 kts 244°
2026-05-08 13:47 51.65411 10.36249 26772 ft 448 kts 244°
2026-05-08 13:48 51.64030 10.31834 26769 ft 449 kts 244°
2026-05-08 13:48 51.62624 10.27347 26764 ft 448 kts 244°
2026-05-08 13:48 51.61214 10.22856 26765 ft 448 kts 244°
2026-05-08 13:48 51.59805 10.18375 26767 ft 448 kts 244°
2026-05-08 13:49 51.58400 10.13917 26762 ft 448 kts 244°
2026-05-08 13:49 51.56988 10.09446 26767 ft 448 kts 244°
2026-05-08 13:49 51.55570 10.04962 26764 ft 448 kts 244°
2026-05-08 13:49 51.54161 10.00515 26766 ft 448 kts 244°
2026-05-08 13:50 51.52742 9.96047 26765 ft 448 kts 243°
2026-05-08 13:50 51.51327 9.91596 26764 ft 448 kts 243°
2026-05-08 13:50 51.49919 9.87175 26760 ft 448 kts 243°
2026-05-08 13:50 51.48482 9.82674 26763 ft 448 kts 243°
2026-05-08 13:51 51.47062 9.78231 26767 ft 448 kts 243°
2026-05-08 13:51 51.45638 9.73785 26764 ft 448 kts 243°
2026-05-08 13:51 51.44231 9.69401 26759 ft 448 kts 243°
2026-05-08 13:51 51.42805 9.64963 26759 ft 448 kts 243°
2026-05-08 13:52 51.41377 9.60530 26755 ft 448 kts 243°
2026-05-08 13:52 51.39941 9.56078 26757 ft 448 kts 243°
2026-05-08 13:52 51.38511 9.51656 26758 ft 448 kts 243°
2026-05-08 13:52 51.37079 9.47232 26757 ft 448 kts 243°
2026-05-08 13:53 51.35647 9.42815 26758 ft 448 kts 243°
2026-05-08 13:53 51.34208 9.38387 26756 ft 448 kts 243°
2026-05-08 13:53 51.32769 9.33967 26758 ft 448 kts 243°
2026-05-08 13:53 51.31330 9.29554 26759 ft 448 kts 243°
2026-05-08 13:54 51.29885 9.25131 26759 ft 448 kts 243°
2026-05-08 13:54 51.28440 9.20715 26765 ft 448 kts 243°
2026-05-08 13:54 51.26994 9.16306 26753 ft 448 kts 243°
2026-05-08 13:54 51.25549 9.11904 26752 ft 448 kts 243°
2026-05-08 13:55 51.24098 9.07495 26757 ft 448 kts 243°
2026-05-08 13:55 51.22650 9.03101 26756 ft 448 kts 243°
2026-05-08 13:55 51.19762 8.94363 26759 ft 448 kts 243°
2026-05-08 13:56 51.18310 8.89978 26750 ft 448 kts 242°
2026-05-08 13:56 51.16853 8.85590 26745 ft 448 kts 242°
2026-05-08 13:56 51.15394 8.81200 26748 ft 448 kts 242°
2026-05-08 13:56 51.13935 8.76818 26751 ft 448 kts 242°
2026-05-08 13:57 51.12477 8.72450 26743 ft 448 kts 242°
2026-05-08 13:57 51.11013 8.68072 26747 ft 448 kts 242°
2026-05-08 13:57 51.09544 8.63684 26738 ft 448 kts 242°
2026-05-08 13:57 51.08080 8.59319 26734 ft 448 kts 242°
2026-05-08 13:58 51.06609 8.54941 26737 ft 448 kts 242°
2026-05-08 13:58 51.05136 8.50564 26740 ft 448 kts 242°
2026-05-08 13:58 51.03665 8.46199 26743 ft 449 kts 242°
2026-05-08 13:58 51.02188 8.41827 26731 ft 449 kts 242°
2026-05-08 13:59 51.00710 8.37460 26723 ft 449 kts 242°
2026-05-08 13:59 50.99229 8.33092 26724 ft 449 kts 242°
2026-05-08 13:59 50.97749 8.28733 26726 ft 448 kts 242°
2026-05-08 13:59 50.96275 8.24397 26732 ft 448 kts 242°
2026-05-08 14:00 50.94789 8.20036 26732 ft 448 kts 242°
2026-05-08 14:00 50.93324 8.15743 26730 ft 448 kts 242°
2026-05-08 14:00 50.91842 8.11410 26737 ft 448 kts 242°
2026-05-08 14:00 50.90349 8.07052 26728 ft 449 kts 241°
2026-05-08 14:01 50.88857 8.02701 26735 ft 449 kts 241°
2026-05-08 14:01 50.87367 7.98362 26731 ft 449 kts 241°
2026-05-08 14:01 50.85874 7.94023 26729 ft 449 kts 241°
2026-05-08 14:01 50.84378 7.89686 26731 ft 449 kts 241°
2026-05-08 14:02 50.82883 7.85358 26729 ft 449 kts 241°
2026-05-08 14:02 50.81381 7.81018 26733 ft 449 kts 241°
2026-05-08 14:02 50.79883 7.76691 26726 ft 449 kts 241°
2026-05-08 14:02 50.78384 7.72374 26700 ft 449 kts 241°
2026-05-08 14:03 50.76879 7.68044 26713 ft 449 kts 241°
2026-05-08 14:03 50.75375 7.63726 26718 ft 449 kts 241°
2026-05-08 14:03 50.73870 7.59409 26719 ft 448 kts 241°
2026-05-08 14:03 50.72360 7.55090 26714 ft 448 kts 241°
2026-05-08 14:04 50.70811 7.50823 26716 ft 448 kts 239°
2026-05-08 14:04 50.69192 7.46612 26713 ft 448 kts 238°
2026-05-08 14:04 50.67553 7.42443 26712 ft 449 kts 238°
2026-05-08 14:04 50.65905 7.38269 26703 ft 449 kts 238°
2026-05-08 14:05 50.64257 7.34083 26716 ft 449 kts 238°
2026-05-08 14:05 50.62612 7.29885 26717 ft 449 kts 238°
2026-05-08 14:05 50.60975 7.25701 26712 ft 449 kts 238°
2026-05-08 14:05 50.59360 7.21564 26715 ft 449 kts 238°
2026-05-08 14:06 50.57725 7.17376 26704 ft 449 kts 238°
2026-05-08 14:06 50.56088 7.13185 26712 ft 449 kts 238°
2026-05-08 14:06 50.54450 7.08999 26714 ft 450 kts 238°
2026-05-08 14:06 50.52812 7.04817 26708 ft 450 kts 238°
2026-05-08 14:07 50.51145 7.00573 26713 ft 450 kts 238°
2026-05-08 14:07 50.49522 6.96445 26696 ft 450 kts 238°
2026-05-08 14:07 50.47855 6.92214 26698 ft 450 kts 238°
2026-05-08 14:07 50.46230 6.88096 26696 ft 450 kts 238°
2026-05-08 14:08 50.44583 6.83928 26695 ft 449 kts 238°
2026-05-08 14:08 50.42931 6.79755 26693 ft 449 kts 238°
2026-05-08 14:08 50.41281 6.75595 26692 ft 449 kts 238°
2026-05-08 14:08 50.39628 6.71433 26697 ft 449 kts 238°
2026-05-08 14:09 50.37979 6.67287 26693 ft 449 kts 238°
2026-05-08 14:09 50.36328 6.63143 26691 ft 449 kts 238°
2026-05-08 14:09 50.34678 6.59009 26689 ft 449 kts 238°
2026-05-08 14:09 50.33018 6.54853 26687 ft 449 kts 238°
2026-05-08 14:10 50.31352 6.50688 26686 ft 449 kts 237°
2026-05-08 14:10 50.29690 6.46544 26685 ft 449 kts 237°
2026-05-08 14:10 50.28030 6.42413 26686 ft 449 kts 237°
2026-05-08 14:10 50.26383 6.38319 26682 ft 450 kts 237°
2026-05-08 14:11 50.24693 6.34122 26683 ft 450 kts 237°
2026-05-08 14:11 50.23592 6.31393 26687 ft 450 kts 237°
2026-05-08 14:11 50.21377 6.25908 26679 ft 450 kts 237°
2026-05-08 14:11 50.19705 6.21778 26678 ft 450 kts 237°
2026-05-08 14:12 50.18029 6.17645 26676 ft 450 kts 237°
2026-05-08 14:12 50.16353 6.13516 26680 ft 450 kts 237°
2026-05-08 14:12 50.14675 6.09391 26677 ft 450 kts 237°
2026-05-08 14:12 50.12997 6.05272 26674 ft 450 kts 237°
2026-05-08 14:13 50.11322 6.01167 26675 ft 450 kts 237°
2026-05-08 14:13 50.09650 5.97072 26673 ft 450 kts 237°
2026-05-08 14:13 50.07961 5.92944 26671 ft 450 kts 237°
2026-05-08 14:13 50.06281 5.88845 26670 ft 450 kts 237°
2026-05-08 14:14 50.04594 5.84735 26678 ft 450 kts 237°
2026-05-08 14:14 50.02929 5.80686 26669 ft 450 kts 237°
2026-05-08 14:14 50.01219 5.76534 26674 ft 450 kts 237°
2026-05-08 14:14 49.99556 5.72500 26676 ft 450 kts 237°
2026-05-08 14:15 49.97866 5.68408 26671 ft 450 kts 237°
2026-05-08 14:15 49.96173 5.64315 26677 ft 450 kts 237°
2026-05-08 14:15 49.94484 5.60237 26673 ft 450 kts 237°
2026-05-08 14:15 49.92787 5.56146 26673 ft 450 kts 237°
2026-05-08 14:16 49.91093 5.52069 26670 ft 450 kts 237°
2026-05-08 14:16 49.89391 5.47980 26668 ft 450 kts 237°
2026-05-08 14:16 49.87693 5.43907 26671 ft 450 kts 237°
2026-05-08 14:16 49.85997 5.39840 26669 ft 450 kts 237°
2026-05-08 14:17 49.84295 5.35771 26669 ft 450 kts 237°
2026-05-08 14:17 49.82734 5.31576 26647 ft 445 kts 246°
2026-05-08 14:17 49.81804 5.27004 26680 ft 447 kts 256°
2026-05-08 14:17 49.81085 5.22360 26670 ft 450 kts 256°
2026-05-08 14:18 49.80312 5.17595 26673 ft 452 kts 255°
2026-05-08 14:18 49.79784 5.14486 26676 ft 453 kts 254°
2026-05-08 14:18 49.78685 5.08246 26670 ft 455 kts 254°
2026-05-08 14:18 49.77828 5.03514 26665 ft 455 kts 253°
2026-05-08 14:19 49.76965 4.98806 26664 ft 455 kts 253°
2026-05-08 14:19 49.76100 4.94110 26664 ft 454 kts 253°
2026-05-08 14:19 49.75234 4.89420 26665 ft 453 kts 253°
2026-05-08 14:19 49.74366 4.84725 26661 ft 453 kts 253°
2026-05-08 14:20 49.73503 4.80062 26660 ft 452 kts 253°
2026-05-08 14:20 49.72634 4.75372 26658 ft 451 kts 253°
2026-05-08 14:20 49.72062 4.72293 26656 ft 448 kts 253°
2026-05-08 14:20 49.70916 4.66137 26566 ft 441 kts 253°
2026-05-08 14:21 49.70068 4.61595 26492 ft 438 kts 253°
2026-05-08 14:21 49.69508 4.58601 26274 ft 437 kts 253°
2026-05-08 14:21 49.68380 4.52577 25704 ft 437 kts 253°
2026-05-08 14:21 49.67817 4.49583 25441 ft 437 kts 253°
2026-05-08 14:22 49.66684 4.43569 24995 ft 435 kts 253°
2026-05-08 14:22 49.66125 4.40617 24807 ft 433 kts 253°
2026-05-08 14:22 49.65281 4.36156 24522 ft 431 kts 253°
2026-05-08 14:22 49.64438 4.31715 24209 ft 429 kts 253°
2026-05-08 14:23 49.63601 4.27310 23905 ft 428 kts 253°
2026-05-08 14:23 49.62763 4.22910 23601 ft 426 kts 253°
2026-05-08 14:23 49.61941 4.18593 23261 ft 424 kts 253°
2026-05-08 14:23 49.61110 4.14240 22754 ft 422 kts 253°
2026-05-08 14:24 49.60285 4.09937 22224 ft 418 kts 253°
2026-05-08 14:24 49.59373 4.05732 21686 ft 406 kts 245°
2026-05-08 14:24 49.57936 4.02015 21212 ft 401 kts 234°
2026-05-08 14:24 49.56318 3.98537 20704 ft 398 kts 235°
2026-05-08 14:25 49.54765 3.95029 20219 ft 395 kts 236°
2026-05-08 14:25 49.53254 3.91497 19729 ft 393 kts 237°
2026-05-08 14:25 49.51772 3.87985 19246 ft 391 kts 237°
2026-05-08 14:25 49.50300 3.84490 18785 ft 388 kts 237°
2026-05-08 14:26 49.48829 3.81009 18288 ft 386 kts 237°
2026-05-08 14:26 49.47429 3.77525 17742 ft 377 kts 243°
2026-05-08 14:26 49.46624 3.73751 17267 ft 368 kts 258°
2026-05-08 14:26 49.46147 3.69907 16800 ft 364 kts 257°
2026-05-08 14:27 49.45555 3.66182 16357 ft 366 kts 255°
2026-05-08 14:27 49.44902 3.62403 15983 ft 371 kts 254°
2026-05-08 14:27 49.44226 3.58523 15785 ft 380 kts 254°
2026-05-08 14:27 49.43550 3.54580 15574 ft 382 kts 255°
2026-05-08 14:28 49.42877 3.50629 15340 ft 383 kts 255°
2026-05-08 14:28 49.42207 3.46700 15120 ft 376 kts 255°
2026-05-08 14:28 49.41500 3.42938 14859 ft 368 kts 250°
2026-05-08 14:28 49.40573 3.39253 14596 ft 363 kts 246°
2026-05-08 14:29 49.39593 3.35746 14325 ft 361 kts 246°
2026-05-08 14:29 49.38593 3.32221 14047 ft 359 kts 246°
2026-05-08 14:29 49.37610 3.28721 13785 ft 357 kts 246°
2026-05-08 14:29 49.36642 3.25225 13482 ft 355 kts 246°
2026-05-08 14:30 49.35664 3.21752 13095 ft 355 kts 244°
2026-05-08 14:30 49.34575 3.18341 12678 ft 356 kts 242°
2026-05-08 14:30 49.33444 3.14976 12358 ft 355 kts 242°
2026-05-08 14:30 49.32308 3.11630 12039 ft 353 kts 242°
2026-05-08 14:31 49.31180 3.08296 11889 ft 352 kts 242°
2026-05-08 14:31 49.30039 3.04922 11909 ft 360 kts 242°
2026-05-08 14:31 49.28883 3.01502 11908 ft 363 kts 242°
2026-05-08 14:32 49.26546 2.94589 11899 ft 365 kts 242°
2026-05-08 14:32 49.25385 2.91155 11908 ft 363 kts 242°
2026-05-08 14:32 49.24344 2.87715 11897 ft 360 kts 251°
2026-05-08 14:32 49.23813 2.83959 11910 ft 366 kts 264°
2026-05-08 14:33 49.23887 2.80051 11911 ft 369 kts 278°
2026-05-08 14:33 49.24521 2.76263 11916 ft 369 kts 288°
2026-05-08 14:33 49.25428 2.72588 11906 ft 369 kts 291°
2026-05-08 14:33 49.26394 2.68974 11914 ft 368 kts 291°
2026-05-08 14:34 49.27378 2.65355 11909 ft 369 kts 291°
2026-05-08 14:34 49.28370 2.61715 11896 ft 368 kts 291°
2026-05-08 14:34 49.29363 2.58090 11874 ft 368 kts 291°
2026-05-08 14:34 49.30359 2.54477 11892 ft 367 kts 292°
2026-05-08 14:35 49.31351 2.50868 11801 ft 366 kts 292°
2026-05-08 14:35 49.32331 2.47298 11523 ft 359 kts 292°
2026-05-08 14:35 49.33293 2.43800 11265 ft 351 kts 292°
2026-05-08 14:35 49.34213 2.40444 11015 ft 342 kts 292°
2026-05-08 14:36 49.35135 2.37073 10730 ft 332 kts 292°
2026-05-08 14:36 49.35991 2.33927 10473 ft 320 kts 291°
2026-05-08 14:36 49.36840 2.30786 10254 ft 318 kts 292°
2026-05-08 14:36 49.37674 2.27670 9991 ft 309 kts 292°
2026-05-08 14:37 49.38456 2.24726 9663 ft 288 kts 292°
2026-05-08 14:37 49.39189 2.21939 9362 ft 276 kts 292°
2026-05-08 14:37 49.39895 2.19239 9111 ft 270 kts 292°
2026-05-08 14:37 49.40580 2.16587 8822 ft 263 kts 292°
2026-05-08 14:38 49.41174 2.13965 8534 ft 259 kts 284°
2026-05-08 14:38 49.41580 2.11263 8223 ft 260 kts 282°
2026-05-08 14:38 49.41950 2.08529 7850 ft 264 kts 282°
2026-05-08 14:38 49.42316 2.05770 7482 ft 264 kts 282°
2026-05-08 14:39 49.42676 2.03005 7122 ft 263 kts 282°
2026-05-08 14:39 49.42818 2.00263 6701 ft 258 kts 261°
2026-05-08 14:39 49.42374 1.97634 6428 ft 249 kts 253°
2026-05-08 14:39 49.41881 1.95109 6126 ft 244 kts 253°
2026-05-08 14:40 49.41403 1.92642 5856 ft 238 kts 253°
2026-05-08 14:40 49.40935 1.90209 5586 ft 238 kts 253°
2026-05-08 14:40 49.40414 1.87814 5425 ft 235 kts 243°
2026-05-08 14:41 49.37691 1.85237 4908 ft 230 kts 175°
2026-05-08 14:41 49.36122 1.85553 4656 ft 223 kts 169°
2026-05-08 14:41 49.34643 1.85889 4542 ft 209 kts 169°
2026-05-08 14:41 49.33212 1.86203 4502 ft 202 kts 169°
2026-05-08 14:42 49.31844 1.86503 4528 ft 202 kts 169°
2026-05-08 14:42 49.30420 1.86813 4531 ft 206 kts 169°
2026-05-08 14:42 49.29013 1.87120 4503 ft 206 kts 170°
2026-05-08 14:42 49.27600 1.87429 4498 ft 205 kts 169°
2026-05-08 14:43 49.26205 1.87733 4480 ft 198 kts 170°
2026-05-08 14:43 49.24863 1.88021 4477 ft 192 kts 170°
2026-05-08 14:43 49.23539 1.88314 4486 ft 193 kts 169°
2026-05-08 14:43 49.22203 1.88612 4500 ft 195 kts 169°
2026-05-08 14:44 49.20856 1.88914 4506 ft 196 kts 169°
2026-05-08 14:44 49.19504 1.89217 4507 ft 196 kts 169°
2026-05-08 14:44 49.18149 1.89520 4504 ft 197 kts 169°
2026-05-08 14:44 49.16809 1.89819 4495 ft 192 kts 169°
2026-05-08 14:45 49.15499 1.90109 4495 ft 189 kts 169°
2026-05-08 14:45 49.14208 1.90388 4493 ft 187 kts 169°
2026-05-08 14:45 49.12915 1.90667 4502 ft 188 kts 169°
2026-05-08 14:45 49.11613 1.90947 4500 ft 189 kts 169°
2026-05-08 14:46 49.10272 1.91237 4537 ft 210 kts 170°
2026-05-08 14:46 49.08761 1.91586 4533 ft 222 kts 167°
2026-05-08 14:46 49.07311 1.92145 4424 ft 206 kts 162°
2026-05-08 14:46 49.06021 1.92829 4383 ft 188 kts 148°
2026-05-08 14:47 49.05004 1.93954 4365 ft 175 kts 140°
2026-05-08 14:47 49.04034 1.95086 4391 ft 178 kts 140°
2026-05-08 14:47 49.03040 1.96237 4390 ft 181 kts 141°
2026-05-08 14:47 49.02031 1.97399 4338 ft 180 kts 141°
2026-05-08 14:48 49.01152 1.98700 4151 ft 179 kts 124°
2026-05-08 14:48 49.00470 2.00279 4033 ft 174 kts 117°
2026-05-08 14:48 48.99947 2.01928 4031 ft 174 kts 112°
2026-05-08 14:48 48.99480 2.03601 3996 ft 169 kts 105°
2026-05-08 14:49 48.99393 2.05314 3982 ft 159 kts 77°
2026-05-08 14:49 48.99658 2.06908 3993 ft 156 kts 80°
2026-05-08 14:49 48.99790 2.08566 4000 ft 155 kts 83°
2026-05-08 14:49 48.99929 2.10209 4010 ft 158 kts 82°
2026-05-08 14:50 49.00071 2.11861 3989 ft 155 kts 82°
2026-05-08 14:50 49.00219 2.13514 3983 ft 156 kts 81°
2026-05-08 14:50 49.00365 2.15177 3997 ft 158 kts 82°
2026-05-08 14:50 49.00508 2.16839 4012 ft 159 kts 83°
2026-05-08 14:51 49.00619 2.18503 3988 ft 155 kts 84°
2026-05-08 14:51 49.00724 2.20168 4006 ft 159 kts 84°
2026-05-08 14:51 49.00825 2.21839 3994 ft 158 kts 84°
2026-05-08 14:51 49.00932 2.23504 3988 ft 159 kts 83°
2026-05-08 14:52 49.01039 2.25168 3984 ft 163 kts 84°
2026-05-08 14:52 49.01244 2.28650 3801 ft 169 kts 85°
2026-05-08 14:52 49.01319 2.30450 3665 ft 170 kts 85°
2026-05-08 14:53 49.01386 2.32247 3556 ft 170 kts 86°
2026-05-08 14:53 49.01450 2.34031 3349 ft 168 kts 85°
2026-05-08 14:53 49.01571 2.35796 3188 ft 167 kts 81°
2026-05-08 14:53 49.01727 2.37526 2863 ft 160 kts 82°
2026-05-08 14:54 49.01844 2.39185 2632 ft 158 kts 83°
2026-05-08 14:54 49.01929 2.40892 2184 ft 165 kts 87°
2026-05-08 14:54 49.01975 2.42600 1801 ft 156 kts 86°
2026-05-08 14:54 49.02036 2.44231 1353 ft 152 kts 86°
2026-05-08 14:55 49.02089 2.45825 1076 ft 149 kts 84°
2026-05-08 14:55 49.02183 2.47385 918 ft 145 kts 83°
2026-05-08 14:55 49.02279 2.48885 795 ft 142 kts 84°
2026-05-08 14:55 49.02366 2.50383 657 ft 140 kts 85°
2026-05-08 14:56 49.02435 2.51899 501 ft 149 kts 84°
2026-05-08 14:56 49.02526 2.53464 367 ft 142 kts 84°
2026-05-08 14:56 49.02585 2.54469 361 ft 25 kts 87°
2026-05-08 14:56 49.02586 2.54494 360 ft 1 kts 86°
2026-05-08 14:57 49.02592 2.54677 363 ft 30 kts 87°
2026-05-08 14:57 49.02606 2.55009 364 ft 22 kts 88°
2026-05-08 14:57 49.02595 2.55162 364 ft 22 kts 102°
2026-05-08 14:57 49.02543 2.55379 366 ft 22 kts 116°
2026-05-08 14:58 49.02506 2.55496 366 ft 0 kts 114°
2026-05-08 15:01 49.02494 2.55534 365 ft 11 kts 119°
2026-05-08 15:01 49.02426 2.55604 366 ft 12 kts 163°
2026-05-08 15:02 49.02342 2.55622 359 ft 12 kts 174°
2026-05-08 15:02 49.02257 2.55633 361 ft 12 kts 175°
2026-05-08 15:02 49.02172 2.55642 365 ft 12 kts 175°
2026-05-08 15:02 49.02092 2.55613 368 ft 12 kts 223°
2026-05-08 15:03 49.02054 2.55497 365 ft 12 kts 233°
2026-05-08 15:03 49.01973 2.55463 364 ft 13 kts 178°
2026-05-08 15:03 49.01893 2.55426 364 ft 13 kts 223°
2026-05-08 15:03 49.01872 2.55300 363 ft 13 kts 266°
2026-05-08 15:04 49.01856 2.55168 365 ft 13 kts 239°
2026-05-08 15:04 49.01773 2.55137 365 ft 13 kts 178°
2026-05-08 15:04 49.01683 2.55148 362 ft 13 kts 175°
2026-05-08 15:04 49.01594 2.55159 364 ft 13 kts 175°
2026-05-08 15:05 49.01504 2.55171 361 ft 13 kts 174°
2026-05-08 15:05 49.01415 2.55192 361 ft 13 kts 169°
2026-05-08 15:05 49.01327 2.55217 365 ft 13 kts 181°
2026-05-08 15:05 49.01241 2.55179 364 ft 13 kts 199°
2026-05-08 15:06 49.01154 2.55164 363 ft 13 kts 168°
2026-05-08 15:06 49.01067 2.55202 361 ft 13 kts 163°
2026-05-08 15:06 49.00980 2.55239 367 ft 13 kts 164°
2026-05-08 15:06 49.00894 2.55276 364 ft 13 kts 164°
2026-05-08 15:07 49.00807 2.55313 363 ft 13 kts 163°
2026-05-08 15:07 49.00720 2.55315 359 ft 13 kts 208°
2026-05-08 15:07 49.00643 2.55253 366 ft 13 kts 181°
2026-05-08 15:07 49.00555 2.55283 363 ft 13 kts 163°
2026-05-08 15:08 49.00465 2.55322 362 ft 13 kts 164°
2026-05-08 15:08 49.00375 2.55362 358 ft 13 kts 164°
2026-05-08 15:08 49.00285 2.55401 362 ft 13 kts 164°
2026-05-08 15:08 49.00196 2.55440 362 ft 13 kts 164°
2026-05-08 15:09 49.00105 2.55480 364 ft 13 kts 164°
2026-05-08 15:09 49.00016 2.55483 365 ft 13 kts 213°
2026-05-08 15:09 48.99980 2.55355 362 ft 14 kts 262°
2026-05-08 15:09 48.99972 2.55212 362 ft 14 kts 265°
2026-05-08 15:10 48.99965 2.55069 358 ft 14 kts 265°
2026-05-08 15:10 48.99958 2.54926 363 ft 14 kts 266°
2026-05-08 15:10 48.99952 2.54784 362 ft 14 kts 266°
2026-05-08 15:10 48.99945 2.54641 366 ft 14 kts 266°
2026-05-08 15:11 48.99937 2.54499 358 ft 14 kts 265°
2026-05-08 15:11 48.99933 2.54422 358 ft 3 kts 265°
2026-05-08 15:11 48.99930 2.54383 367 ft 5 kts 265°
2026-05-08 15:11 48.99941 2.54332 365 ft 5 kts 307°
2026-05-08 15:12 48.99971 2.54309 362 ft 6 kts 344°
2026-05-08 15:12 48.99986 2.54304 364 ft 1 kts 346°
2026-05-08 15:12 49.00001 2.54299 364 ft 3 kts 349°
2026-05-08 15:12 49.00009 2.54298 362 ft 0 kts 354°
2026-05-08 15:13 49.00011 2.54297 362 ft 0 kts 355°